AFL149 ULLI-EPWA

Flight info

Callsign AFL149
Flight time 1h 46m
Altitude 38000
Route RUMOL1A/28R K0835F380RUMOL N171 LUMIT M984 OSMUS T174 RUDKA/N0446F380 M863 ETUBO M866 GERVI/N0378F200 P851 NEPOX NEPOX6U
Aircraft A321/M-SDE3FGHIRWY/LB1

Departure

Time 2026-05-04 18:52
Airport Pulkovo Airport (ULLI)

Arrival

Time 2026-05-04 20:39
Airport Warsaw Chopin Airport (EPWA)
Time Latitude Longitude Altitude Speed Heading
2026-05-04 18:07 59.80056 30.26791 85 ft 0 kts 107°
2026-05-04 18:32 59.80058 30.26778 83 ft 4 kts 106°
2026-05-04 18:32 59.80065 30.26728 83 ft 4 kts 87°
2026-05-04 18:33 59.80056 30.26685 86 ft 4 kts 33°
2026-05-04 18:33 59.80043 30.26672 85 ft 0 kts 16°
2026-05-04 18:36 59.80047 30.26674 85 ft 1 kts 16°
2026-05-04 18:36 59.80063 30.26683 83 ft 3 kts 16°
2026-05-04 18:37 59.80091 30.26700 81 ft 5 kts 16°
2026-05-04 18:37 59.80133 30.26724 85 ft 7 kts 16°
2026-05-04 18:37 59.80188 30.26756 83 ft 9 kts 16°
2026-05-04 18:37 59.80256 30.26796 85 ft 11 kts 17°
2026-05-04 18:38 59.80339 30.26845 81 ft 14 kts 17°
2026-05-04 18:38 59.80376 30.26988 84 ft 14 kts 103°
2026-05-04 18:38 59.80347 30.27190 81 ft 18 kts 106°
2026-05-04 18:38 59.80305 30.27467 82 ft 24 kts 107°
2026-05-04 18:39 59.80250 30.27833 82 ft 31 kts 107°
2026-05-04 18:39 59.80186 30.28259 83 ft 32 kts 106°
2026-05-04 18:39 59.80140 30.28570 81 ft 17 kts 107°
2026-05-04 18:39 59.80107 30.28790 73 ft 16 kts 107°
2026-05-04 18:40 59.80075 30.29004 78 ft 16 kts 107°
2026-05-04 18:40 59.80044 30.29209 71 ft 15 kts 107°
2026-05-04 18:40 59.80015 30.29407 68 ft 15 kts 107°
2026-05-04 18:40 59.79986 30.29598 69 ft 14 kts 107°
2026-05-04 18:41 59.79959 30.29776 74 ft 5 kts 107°
2026-05-04 18:41 59.79959 30.29780 74 ft 1 kts 107°
2026-05-04 18:41 59.79957 30.29792 67 ft 1 kts 107°
2026-05-04 18:41 59.79954 30.29809 70 ft 1 kts 107°
2026-05-04 18:42 59.79949 30.29845 74 ft 4 kts 107°
2026-05-04 18:42 59.79939 30.29915 67 ft 6 kts 103°
2026-05-04 18:42 59.79941 30.30010 76 ft 8 kts 72°
2026-05-04 18:42 59.79974 30.30103 73 ft 9 kts 47°
2026-05-04 18:43 59.79977 30.30109 73 ft 0 kts 47°
2026-05-04 18:46 59.79980 30.30115 73 ft 2 kts 47°
2026-05-04 18:47 59.79995 30.30147 65 ft 6 kts 47°
2026-05-04 18:47 59.80040 30.30242 63 ft 13 kts 45°
2026-05-04 18:47 59.80099 30.30288 66 ft 8 kts 346°
2026-05-04 18:47 59.80127 30.30199 72 ft 8 kts 285°
2026-05-04 18:48 59.80137 30.30129 68 ft 0 kts 285°
2026-05-04 18:52 59.80150 30.30035 71 ft 35 kts 286°
2026-05-04 18:52 59.80322 30.28888 70 ft 133 kts 286°
2026-05-04 18:52 59.80629 30.26799 546 ft 166 kts 285°
2026-05-04 18:52 59.80954 30.24569 1569 ft 170 kts 285°
2026-05-04 18:53 59.81308 30.22181 2173 ft 191 kts 285°
2026-05-04 18:53 59.81700 30.19543 2792 ft 203 kts 284°
2026-05-04 18:53 59.82109 30.16802 3338 ft 210 kts 283°
2026-05-04 18:53 59.82522 30.14029 3520 ft 209 kts 283°
2026-05-04 18:54 59.82935 30.11246 4333 ft 209 kts 282°
2026-05-04 18:54 59.83345 30.08465 5283 ft 211 kts 281°
2026-05-04 18:54 59.83759 30.05638 6153 ft 216 kts 281°
2026-05-04 18:54 59.84181 30.02727 6515 ft 219 kts 280°
2026-05-04 18:55 59.84210 29.99809 6912 ft 216 kts 251°
2026-05-04 18:55 59.81965 29.96028 8710 ft 231 kts 204°
2026-05-04 18:55 59.80416 29.95127 9610 ft 234 kts 203°
2026-05-04 18:56 59.78843 29.94248 10413 ft 235 kts 203°
2026-05-04 18:56 59.77262 29.93364 11222 ft 237 kts 203°
2026-05-04 18:56 59.75651 29.92522 12036 ft 243 kts 196°
2026-05-04 18:56 59.73911 29.93005 12803 ft 271 kts 163°
2026-05-04 18:57 59.72363 29.95537 13197 ft 313 kts 134°
2026-05-04 18:57 59.71296 29.99581 13423 ft 349 kts 116°
2026-05-04 18:57 59.70587 30.04374 13601 ft 377 kts 108°
2026-05-04 18:57 59.70035 30.09623 13733 ft 401 kts 105°
2026-05-04 18:58 59.69568 30.15184 14052 ft 417 kts 97°
2026-05-04 18:58 59.69604 30.20912 14654 ft 425 kts 90°
2026-05-04 18:58 59.69654 30.26777 15319 ft 427 kts 94°
2026-05-04 18:58 59.69548 30.32671 15963 ft 429 kts 99°
2026-05-04 18:59 59.68979 30.38452 16596 ft 427 kts 109°
2026-05-04 18:59 59.68253 30.44177 17230 ft 431 kts 108°
2026-05-04 18:59 59.67574 30.49989 17859 ft 435 kts 107°
2026-05-04 18:59 59.66724 30.55709 18392 ft 433 kts 117°
2026-05-04 19:00 59.65320 30.60915 18965 ft 426 kts 131°
2026-05-04 19:00 59.63394 30.65264 19475 ft 416 kts 145°
2026-05-04 19:00 59.61071 30.68557 20039 ft 407 kts 158°
2026-05-04 19:00 59.58502 30.70747 20610 ft 399 kts 169°
2026-05-04 19:01 59.55812 30.71858 21135 ft 393 kts 179°
2026-05-04 19:01 59.53088 30.72592 21680 ft 396 kts 178°
2026-05-04 19:01 59.50349 30.73343 22241 ft 399 kts 178°
2026-05-04 19:01 59.47596 30.74104 22780 ft 401 kts 178°
2026-05-04 19:02 59.44820 30.74871 23312 ft 403 kts 178°
2026-05-04 19:02 59.42035 30.75640 23759 ft 406 kts 178°
2026-05-04 19:02 59.39225 30.76417 24203 ft 408 kts 178°
2026-05-04 19:02 59.36406 30.77198 24641 ft 410 kts 178°
2026-05-04 19:03 59.33571 30.77981 25094 ft 412 kts 178°
2026-05-04 19:03 59.30719 30.78757 25522 ft 415 kts 179°
2026-05-04 19:03 59.27852 30.79530 25934 ft 417 kts 179°
2026-05-04 19:03 59.24966 30.80310 26341 ft 420 kts 179°
2026-05-04 19:04 59.22069 30.81092 26742 ft 422 kts 179°
2026-05-04 19:04 59.19189 30.81865 27147 ft 424 kts 179°
2026-05-04 19:04 59.16257 30.82651 27542 ft 427 kts 179°
2026-05-04 19:04 59.13304 30.83243 27938 ft 424 kts 185°
2026-05-04 19:05 59.10374 30.82963 28220 ft 421 kts 193°
2026-05-04 19:05 59.07511 30.81854 28583 ft 419 kts 198°
2026-05-04 19:05 59.04671 30.80612 29112 ft 417 kts 198°
2026-05-04 19:05 59.01845 30.79386 29632 ft 416 kts 198°
2026-05-04 19:06 58.99028 30.78171 30092 ft 414 kts 198°
2026-05-04 19:06 58.96212 30.76958 30534 ft 413 kts 198°
2026-05-04 19:06 58.93409 30.75754 30980 ft 412 kts 198°
2026-05-04 19:06 58.90613 30.74557 31432 ft 411 kts 198°
2026-05-04 19:07 58.87823 30.73365 31884 ft 410 kts 198°
2026-05-04 19:07 58.85042 30.72172 32339 ft 409 kts 198°
2026-05-04 19:07 58.82269 30.70986 32770 ft 408 kts 198°
2026-05-04 19:07 58.79494 30.69800 33210 ft 407 kts 198°
2026-05-04 19:08 58.76733 30.68621 33663 ft 406 kts 198°
2026-05-04 19:08 58.73979 30.67445 34038 ft 405 kts 198°
2026-05-04 19:08 58.71217 30.66269 34351 ft 406 kts 198°
2026-05-04 19:08 58.68454 30.65092 34651 ft 407 kts 198°
2026-05-04 19:09 58.65678 30.63914 34938 ft 409 kts 198°
2026-05-04 19:09 58.62898 30.62738 35224 ft 410 kts 198°
2026-05-04 19:09 58.60145 30.61578 35502 ft 411 kts 198°
2026-05-04 19:09 58.57309 30.60382 35787 ft 412 kts 198°
2026-05-04 19:10 58.54539 30.59219 36049 ft 414 kts 198°
2026-05-04 19:10 58.51726 30.58039 36294 ft 415 kts 198°
2026-05-04 19:10 58.48903 30.56858 36561 ft 416 kts 198°
2026-05-04 19:10 58.46077 30.55679 36822 ft 417 kts 198°
2026-05-04 19:11 58.43237 30.54492 37066 ft 418 kts 198°
2026-05-04 19:11 58.40395 30.53309 37317 ft 419 kts 198°
2026-05-04 19:11 58.37545 30.52126 37539 ft 420 kts 198°
2026-05-04 19:11 58.34683 30.50936 37699 ft 422 kts 198°
2026-05-04 19:12 58.26068 30.47365 37723 ft 423 kts 198°
2026-05-04 19:13 58.20311 30.44985 37728 ft 424 kts 198°
2026-05-04 19:13 58.14549 30.42619 37728 ft 424 kts 198°
2026-05-04 19:14 58.08784 30.40250 37725 ft 424 kts 198°
2026-05-04 19:14 58.03024 30.37888 37732 ft 424 kts 198°
2026-05-04 19:15 57.97250 30.35537 37748 ft 424 kts 198°
2026-05-04 19:15 57.91470 30.33200 37746 ft 425 kts 197°
2026-05-04 19:16 57.85692 30.30871 37752 ft 425 kts 198°
2026-05-04 19:16 57.79917 30.28526 37750 ft 424 kts 198°
2026-05-04 19:17 57.74139 30.26199 37754 ft 425 kts 197°
2026-05-04 19:17 57.68361 30.23894 37758 ft 425 kts 197°
2026-05-04 19:18 57.62619 30.21601 37751 ft 425 kts 197°
2026-05-04 19:18 57.56843 30.19303 37753 ft 425 kts 197°
2026-05-04 19:19 57.51068 30.17005 37728 ft 425 kts 197°
2026-05-04 19:19 57.45282 30.14716 37745 ft 425 kts 197°
2026-05-04 19:20 57.39493 30.12445 37761 ft 425 kts 197°
2026-05-04 19:20 57.33702 30.10181 37759 ft 425 kts 197°
2026-05-04 19:21 57.27913 30.07906 37776 ft 425 kts 197°
2026-05-04 19:21 57.22125 30.05634 37780 ft 425 kts 197°
2026-05-04 19:22 57.16334 30.03377 37781 ft 425 kts 197°
2026-05-04 19:22 57.10551 30.01125 37768 ft 425 kts 197°
2026-05-04 19:23 57.04770 29.98897 37775 ft 424 kts 197°
2026-05-04 19:23 56.98994 29.96675 37787 ft 424 kts 197°
2026-05-04 19:24 56.93227 29.94472 37784 ft 423 kts 197°
2026-05-04 19:24 56.87459 29.92265 37790 ft 423 kts 197°
2026-05-04 19:25 56.81685 29.90057 37767 ft 423 kts 197°
2026-05-04 19:25 56.75931 29.87858 37784 ft 422 kts 197°
2026-05-04 19:26 56.70212 29.85685 37800 ft 422 kts 197°
2026-05-04 19:26 56.64448 29.83507 37803 ft 422 kts 197°
2026-05-04 19:27 56.58697 29.81336 37806 ft 422 kts 197°
2026-05-04 19:27 56.52940 29.79172 37792 ft 422 kts 197°
2026-05-04 19:28 56.47182 29.77019 37797 ft 423 kts 196°
2026-05-04 19:28 56.42396 29.75234 37806 ft 422 kts 196°
2026-05-04 19:29 56.36643 29.73082 37812 ft 422 kts 196°
2026-05-04 19:29 56.30888 29.70942 37818 ft 423 kts 196°
2026-05-04 19:30 56.25126 29.68811 37795 ft 423 kts 196°
2026-05-04 19:30 56.19359 29.66682 37810 ft 423 kts 196°
2026-05-04 19:31 56.13591 29.64566 37818 ft 423 kts 196°
2026-05-04 19:31 56.07819 29.62447 37823 ft 424 kts 196°
2026-05-04 19:32 56.02041 29.60343 37832 ft 424 kts 196°
2026-05-04 19:32 55.96263 29.58237 37793 ft 424 kts 196°
2026-05-04 19:33 55.90485 29.56130 37807 ft 424 kts 196°
2026-05-04 19:33 55.84739 29.54045 37821 ft 424 kts 196°
2026-05-04 19:34 55.80950 29.52679 37826 ft 425 kts 196°
2026-05-04 19:34 55.75153 29.50594 37838 ft 425 kts 196°
2026-05-04 19:35 55.69626 29.47287 37818 ft 416 kts 212°
2026-05-04 19:35 55.64903 29.41506 37826 ft 413 kts 219°
2026-05-04 19:36 55.60254 29.35512 37831 ft 413 kts 219°
2026-05-04 19:36 55.55594 29.29556 37840 ft 414 kts 219°
2026-05-04 19:37 55.50930 29.23598 37844 ft 414 kts 218°
2026-05-04 19:37 55.46293 29.17693 37830 ft 414 kts 218°
2026-05-04 19:38 55.41622 29.11746 37837 ft 414 kts 218°
2026-05-04 19:38 55.36941 29.05813 37841 ft 414 kts 218°
2026-05-04 19:39 55.32262 28.99896 37847 ft 415 kts 218°
2026-05-04 19:39 55.27575 28.93989 37853 ft 415 kts 219°
2026-05-04 19:40 55.23316 28.87266 37855 ft 412 kts 226°
2026-05-04 19:40 55.19190 28.80307 37858 ft 412 kts 226°
2026-05-04 19:41 55.15048 28.73357 37861 ft 412 kts 226°
2026-05-04 19:41 55.10905 28.66424 37863 ft 412 kts 226°
2026-05-04 19:42 55.06760 28.59507 37860 ft 412 kts 226°
2026-05-04 19:42 55.02612 28.52604 37853 ft 413 kts 226°
2026-05-04 19:43 54.98477 28.45760 37857 ft 413 kts 225°
2026-05-04 19:43 54.94313 28.38876 37859 ft 413 kts 226°
2026-05-04 19:44 54.90146 28.32002 37862 ft 413 kts 225°
2026-05-04 19:44 54.85965 28.25141 37864 ft 413 kts 225°
2026-05-04 19:45 54.81785 28.18296 37875 ft 413 kts 225°
2026-05-04 19:45 54.77608 28.11460 37878 ft 413 kts 225°
2026-05-04 19:46 54.73426 28.04633 37880 ft 413 kts 225°
2026-05-04 19:46 54.69234 27.97828 37881 ft 413 kts 225°
2026-05-04 19:47 54.65037 27.91036 37864 ft 413 kts 225°
2026-05-04 19:47 54.60832 27.84262 37867 ft 413 kts 225°
2026-05-04 19:48 54.56629 27.77500 37873 ft 414 kts 225°
2026-05-04 19:48 54.52412 27.70739 37875 ft 414 kts 225°
2026-05-04 19:49 54.48223 27.64040 37881 ft 414 kts 225°
2026-05-04 19:49 54.43998 27.57310 37863 ft 414 kts 225°
2026-05-04 19:50 54.39762 27.50591 37868 ft 415 kts 225°
2026-05-04 19:50 54.35524 27.43873 37872 ft 415 kts 225°
2026-05-04 19:51 54.31282 27.37164 37878 ft 415 kts 225°
2026-05-04 19:51 54.27033 27.30468 37878 ft 415 kts 225°
2026-05-04 19:52 54.22773 27.23789 37860 ft 416 kts 225°
2026-05-04 19:52 54.18504 27.17108 37865 ft 416 kts 225°
2026-05-04 19:53 54.14227 27.10434 37875 ft 417 kts 224°
2026-05-04 19:53 54.09942 27.03770 37879 ft 417 kts 224°
2026-05-04 19:54 54.05646 26.97114 37885 ft 417 kts 224°
2026-05-04 19:54 54.01343 26.90476 37888 ft 418 kts 224°
2026-05-04 19:55 53.97029 26.83845 37895 ft 418 kts 224°
2026-05-04 19:55 53.92711 26.77215 37883 ft 419 kts 224°
2026-05-04 19:56 53.88742 26.70069 37880 ft 415 kts 237°
2026-05-04 19:56 53.85763 26.61696 37901 ft 415 kts 240°
2026-05-04 19:57 53.82809 26.53366 37887 ft 415 kts 240°
2026-05-04 19:57 53.79818 26.44985 37882 ft 416 kts 240°
2026-05-04 19:58 53.76823 26.36612 37887 ft 416 kts 240°
2026-05-04 19:58 53.73828 26.28235 37888 ft 417 kts 240°
2026-05-04 19:59 53.70824 26.19862 37894 ft 417 kts 240°
2026-05-04 19:59 53.67813 26.11500 37879 ft 417 kts 240°
2026-05-04 20:00 53.64787 26.03144 37878 ft 417 kts 239°
2026-05-04 20:00 53.61757 25.94797 37891 ft 418 kts 239°
2026-05-04 20:01 53.58742 25.86504 37885 ft 418 kts 239°
2026-05-04 20:01 53.55680 25.78115 37899 ft 418 kts 239°
2026-05-04 20:02 53.52655 25.69837 37895 ft 418 kts 239°
2026-05-04 20:02 53.49598 25.61516 37897 ft 419 kts 239°
2026-05-04 20:03 53.46533 25.53203 37902 ft 418 kts 239°
2026-05-04 20:03 53.43462 25.44908 37911 ft 418 kts 239°
2026-05-04 20:04 53.40375 25.36619 37903 ft 418 kts 239°
2026-05-04 20:04 53.37295 25.28354 37907 ft 418 kts 239°
2026-05-04 20:05 53.34209 25.20089 37904 ft 418 kts 239°
2026-05-04 20:05 53.31119 25.11842 37905 ft 418 kts 239°
2026-05-04 20:06 53.28023 25.03608 37913 ft 418 kts 239°
2026-05-04 20:06 53.24916 24.95384 37914 ft 418 kts 239°
2026-05-04 20:07 53.21793 24.87195 37917 ft 418 kts 239°
2026-05-04 20:07 53.18654 24.79009 37916 ft 418 kts 238°
2026-05-04 20:08 53.15510 24.70841 37917 ft 419 kts 238°
2026-05-04 20:08 53.12359 24.62674 37916 ft 419 kts 238°
2026-05-04 20:09 53.09228 24.54559 37916 ft 419 kts 238°
2026-05-04 20:09 53.06073 24.46406 37917 ft 419 kts 238°
2026-05-04 20:10 53.02900 24.38267 37919 ft 419 kts 238°
2026-05-04 20:10 52.99727 24.30147 37902 ft 419 kts 238°
2026-05-04 20:11 52.96543 24.22027 37906 ft 420 kts 238°
2026-05-04 20:11 52.93361 24.13891 37907 ft 421 kts 239°
2026-05-04 20:12 52.90239 24.05682 37913 ft 421 kts 239°
2026-05-04 20:12 52.87137 23.97450 37920 ft 421 kts 239°
2026-05-04 20:13 52.84012 23.89241 37919 ft 421 kts 239°
2026-05-04 20:13 52.80826 23.81099 37919 ft 422 kts 238°
2026-05-04 20:14 52.77606 23.72989 37921 ft 422 kts 238°
2026-05-04 20:14 52.74396 23.64873 37929 ft 422 kts 238°
2026-05-04 20:15 52.71192 23.56748 37927 ft 422 kts 238°
2026-05-04 20:15 52.67978 23.48647 37931 ft 422 kts 238°
2026-05-04 20:16 52.64770 23.40601 37916 ft 423 kts 238°
2026-05-04 20:16 52.63158 23.36570 37223 ft 422 kts 238°
2026-05-04 20:16 52.61542 23.32532 36344 ft 424 kts 238°
2026-05-04 20:16 52.59914 23.28475 35501 ft 425 kts 238°
2026-05-04 20:17 52.58279 23.24402 34666 ft 426 kts 238°
2026-05-04 20:17 52.56645 23.20329 33827 ft 428 kts 238°
2026-05-04 20:17 52.55002 23.16240 32851 ft 429 kts 238°
2026-05-04 20:17 52.53353 23.12145 31844 ft 432 kts 238°
2026-05-04 20:18 52.52254 23.09416 31169 ft 433 kts 239°
2026-05-04 20:18 52.50582 23.05273 30133 ft 437 kts 239°
2026-05-04 20:18 52.48891 23.01098 28995 ft 441 kts 238°
2026-05-04 20:18 52.47185 22.96902 27989 ft 443 kts 238°
2026-05-04 20:19 52.45469 22.92690 26997 ft 445 kts 238°
2026-05-04 20:19 52.43747 22.88462 25985 ft 447 kts 238°
2026-05-04 20:19 52.42022 22.84225 25149 ft 445 kts 237°
2026-05-04 20:19 52.40311 22.80030 24449 ft 440 kts 237°
2026-05-04 20:20 52.38620 22.75889 23732 ft 435 kts 237°
2026-05-04 20:20 52.36948 22.71803 22949 ft 430 kts 237°
2026-05-04 20:20 52.35292 22.67762 22180 ft 425 kts 237°
2026-05-04 20:20 52.33658 22.63783 21462 ft 418 kts 237°
2026-05-04 20:21 52.32044 22.59862 20750 ft 412 kts 237°
2026-05-04 20:21 52.30452 22.55999 20059 ft 406 kts 237°
2026-05-04 20:21 52.27340 22.48474 18822 ft 394 kts 237°
2026-05-04 20:22 52.25818 22.44803 18274 ft 388 kts 236°
2026-05-04 20:22 52.24315 22.41184 17649 ft 380 kts 236°
2026-05-04 20:22 52.22881 22.37733 17502 ft 356 kts 236°
2026-05-04 20:22 52.21535 22.34496 17297 ft 336 kts 236°
2026-05-04 20:23 52.20239 22.31380 16863 ft 329 kts 236°
2026-05-04 20:23 52.18962 22.28312 16392 ft 325 kts 236°
2026-05-04 20:23 52.17722 22.25242 15874 ft 323 kts 240°
2026-05-04 20:23 52.16737 22.21965 15367 ft 321 kts 248°
2026-05-04 20:24 52.16067 22.18507 14873 ft 320 kts 256°
2026-05-04 20:24 52.15724 22.14941 14383 ft 319 kts 264°
2026-05-04 20:24 52.15635 22.11336 13908 ft 317 kts 263°
2026-05-04 20:24 52.14991 22.07956 13420 ft 314 kts 242°
2026-05-04 20:25 52.13886 22.04898 12882 ft 313 kts 240°
2026-05-04 20:25 52.12781 22.01852 12367 ft 311 kts 240°
2026-05-04 20:25 52.11692 21.98820 11875 ft 310 kts 240°
2026-05-04 20:25 52.10616 21.95798 11406 ft 308 kts 240°
2026-05-04 20:26 52.09552 21.92791 10926 ft 306 kts 241°
2026-05-04 20:26 52.08495 21.89801 10394 ft 305 kts 241°
2026-05-04 20:26 52.07423 21.86775 9815 ft 307 kts 240°
2026-05-04 20:26 52.06368 21.83807 9527 ft 298 kts 240°
2026-05-04 20:27 52.05353 21.80955 9346 ft 283 kts 240°
2026-05-04 20:27 52.04400 21.78278 9156 ft 264 kts 240°
2026-05-04 20:27 52.03516 21.75798 8894 ft 250 kts 240°
2026-05-04 20:27 52.02674 21.73440 8684 ft 234 kts 240°
2026-05-04 20:28 52.01866 21.71176 8339 ft 231 kts 240°
2026-05-04 20:28 52.01066 21.68931 8024 ft 229 kts 240°
2026-05-04 20:28 52.00274 21.66710 7644 ft 226 kts 240°
2026-05-04 20:28 51.99487 21.64504 7165 ft 225 kts 240°
2026-05-04 20:29 51.98704 21.62315 6714 ft 224 kts 239°
2026-05-04 20:29 51.97920 21.60131 6238 ft 224 kts 239°
2026-05-04 20:29 51.97138 21.57953 5755 ft 224 kts 240°
2026-05-04 20:29 51.96357 21.55770 5317 ft 225 kts 240°
2026-05-04 20:30 51.95575 21.53584 5059 ft 222 kts 240°
2026-05-04 20:30 51.94837 21.51375 5002 ft 224 kts 250°
2026-05-04 20:30 51.94632 21.48896 4813 ft 225 kts 276°
2026-05-04 20:30 51.95015 21.46446 4588 ft 221 kts 283°
2026-05-04 20:31 51.95428 21.44121 4455 ft 209 kts 283°
2026-05-04 20:31 51.95822 21.41893 4283 ft 203 kts 283°
2026-05-04 20:31 51.96206 21.39699 4047 ft 202 kts 283°
2026-05-04 20:31 51.96585 21.37515 3791 ft 201 kts 283°
2026-05-04 20:32 51.96963 21.35332 3545 ft 201 kts 283°
2026-05-04 20:32 51.97341 21.33158 3313 ft 200 kts 283°
2026-05-04 20:32 51.97717 21.30989 3083 ft 199 kts 283°
2026-05-04 20:32 51.98094 21.28812 3013 ft 198 kts 283°
2026-05-04 20:33 51.98458 21.26720 3008 ft 189 kts 283°
2026-05-04 20:33 51.98805 21.24708 3006 ft 185 kts 283°
2026-05-04 20:33 51.99138 21.22776 3014 ft 164 kts 283°
2026-05-04 20:33 51.99426 21.21104 2999 ft 149 kts 283°
2026-05-04 20:34 51.99707 21.19458 3018 ft 163 kts 283°
2026-05-04 20:34 52.00022 21.17590 3015 ft 175 kts 283°
2026-05-04 20:34 52.00351 21.15656 3011 ft 178 kts 283°
2026-05-04 20:34 52.00682 21.13716 3009 ft 178 kts 283°
2026-05-04 20:35 52.01020 21.11782 3004 ft 178 kts 285°
2026-05-04 20:35 52.01651 21.10036 3003 ft 183 kts 308°
2026-05-04 20:35 52.02683 21.08805 3006 ft 187 kts 328°
2026-05-04 20:35 52.03837 21.07812 2922 ft 188 kts 327°
2026-05-04 20:36 52.04985 21.06811 2672 ft 187 kts 328°
2026-05-04 20:36 52.06129 21.05816 2421 ft 184 kts 328°
2026-05-04 20:36 52.07189 21.04897 2190 ft 166 kts 328°
2026-05-04 20:36 52.08178 21.04037 1981 ft 157 kts 328°
2026-05-04 20:37 52.09124 21.03213 1810 ft 149 kts 328°
2026-05-04 20:37 52.10002 21.02449 1611 ft 140 kts 328°
2026-05-04 20:37 52.10845 21.01714 1416 ft 136 kts 329°
2026-05-04 20:37 52.11673 21.00991 1244 ft 135 kts 330°
2026-05-04 20:38 52.12497 21.00272 1062 ft 134 kts 330°
2026-05-04 20:38 52.13325 20.99551 883 ft 135 kts 330°
2026-05-04 20:38 52.14152 20.98829 700 ft 135 kts 330°
2026-05-04 20:38 52.14978 20.98106 503 ft 135 kts 330°
2026-05-04 20:39 52.15803 20.97382 346 ft 134 kts 330°
2026-05-04 20:39 52.16492 20.96758 338 ft 91 kts 331°
2026-05-04 20:39 52.16898 20.96429 336 ft 41 kts 335°
2026-05-04 20:39 52.17078 20.96286 337 ft 25 kts 342°
2026-05-04 20:40 52.17239 20.96243 334 ft 23 kts
2026-05-04 20:40 52.17265 20.96243 338 ft 0 kts 360°
2026-05-04 20:41 52.17268 20.96243 338 ft 1 kts 359°
2026-05-04 20:41 52.17295 20.96243 336 ft 7 kts
2026-05-04 20:41 52.17365 20.96257 338 ft 12 kts 21°
2026-05-04 20:42 52.17418 20.96351 336 ft 11 kts 60°
2026-05-04 20:42 52.17455 20.96463 337 ft 11 kts 62°
2026-05-04 20:42 52.17497 20.96569 337 ft 11 kts 49°
2026-05-04 20:42 52.17543 20.96670 336 ft 11 kts 56°
2026-05-04 20:43 52.17583 20.96776 336 ft 11 kts 59°
2026-05-04 20:43 52.17620 20.96882 336 ft 10 kts 73°
2026-05-04 20:43 52.17589 20.96973 337 ft 10 kts 148°
2026-05-04 20:43 52.17533 20.97025 336 ft 8 kts 150°
2026-05-04 20:44 52.17508 20.97022 337 ft 3 kts 239°
2026-05-04 20:44 52.17495 20.96997 334 ft 3 kts 235°
2026-05-04 20:44 52.17484 20.96968 335 ft 3 kts 240°
2026-05-04 20:44 52.17479 20.96952 336 ft 0 kts 240°
2026-05-04 20:45 52.17478 20.96952 336 ft 0 kts 240°
2026-05-04 20:45 52.17478 20.96951 336 ft 0 kts 240°